QPF
0.13 0.12 0.15 0.17 0.17 0.15 0.11 0.10 0.09 0.08 0.08 0.09 0.10 0.11 0.12 0.13 0.14 0.10 0.08 0.06 0.05 0.06 0.06 0.05 0.04 0.04 0.04 0.04 0.03 0.03 0.03 0.05 0.04 0.04 0.04 0.03 0.03 0.02 0.02 0.01 0.01 0.01 0.01
0.21 0.19 0.21 0.25 0.27 0.26 0.25 0.21 0.16 0.18 0.15 0.13 0.13 0.15 0.14 0.14 0.15 0.11 0.09 0.04 0.04 0.05 0.06 0.06 0.06 0.07 0.05 0.04 0.03 0.03 0.03 0.04 0.04 0.04 0.04 0.04 0.03 0.02 0.02 0.02 0.01 0.01 0.01
0.22 0.18 0.20 0.28 0.32 0.37 0.42 0.45 0.33 0.27 0.26 0.21 0.19 0.16 0.14 0.14 0.14 0.13 0.16 0.09 0.05 0.05 0.05 0.04 0.05 0.05 0.04 0.04 0.04 0.04 0.04 0.04 0.03 0.03 0.03 0.03 0.02 0.03 0.03 0.02 0.02 0.02 0.01
0.23 0.20 0.20 0.22 0.25 0.32 0.43 0.50 0.39 0.32 0.30 0.26 0.26 0.20 0.16 0.15 0.11 0.11 0.12 0.08 0.07 0.05 0.04 0.03 0.03 0.04 0.04 0.04 0.04 0.04 0.03 0.03 0.02 0.01 0.01 0.01 0.01 0.02 0.01 0.01 0.01 0.01 0.01
0.23 0.22 0.20 0.20 0.21 0.24 0.33 0.38 0.35 0.27 0.27 0.27 0.23 0.20 0.21 0.20 0.15 0.13 0.13 0.14 0.12 0.08 0.05 0.04 0.04 0.03 0.03 0.03 0.04 0.04 0.03 0.02 0.01 0.01 0.01 0.01 0.02 0.02 0.02 0.01 0.01 0.01 0.01
0.26 0.24 0.21 0.25 0.30 0.32 0.27 0.31 0.31 0.27 0.23 0.23 0.22 0.19 0.21 0.25 0.21 0.17 0.15 0.15 0.14 0.09 0.06 0.07 0.06 0.04 0.03 0.03 0.03 0.03 0.02 0.02 0.02 0.02 0.02 0.02 0.03 0.02 0.02 0.02 0.02 0.01 0.01
0.31 0.28 0.25 0.25 0.25 0.24 0.22 0.22 0.26 0.27 0.23 0.18 0.19 0.16 0.16 0.22 0.21 0.15 0.12 0.10 0.08 0.06 0.04 0.04 0.06 0.04 0.03 0.03 0.04 0.04 0.03 0.03 0.02 0.03 0.03 0.02 0.02 0.02 0.02 0.02 0.02 0.01 0.01
0.29 0.30 0.30 0.27 0.23 0.22 0.23 0.21 0.21 0.23 0.21 0.16 0.15 0.15 0.14 0.16 0.16 0.14 0.12 0.09 0.07 0.05 0.04 0.03 0.04 0.04 0.03 0.03 0.03 0.03 0.03 0.02 0.02 0.02 0.02 0.02 0.01 0.01 0.01 0.01 0.02 0.02 0.02
0.24 0.23 0.22 0.21 0.20 0.19 0.19 0.21 0.21 0.20 0.20 0.18 0.14 0.14 0.14 0.14 0.13 0.14 0.12 0.09 0.07 0.05 0.03 0.02 0.02 0.03 0.04 0.03 0.02 0.02 0.02 0.03 0.02 0.01 0.01 0.01 0.01 0.01 0.01 0.01 0.02 0.02 0.03
0.16 0.14 0.13 0.16 0.14 0.16 0.16 0.16 0.17 0.18 0.19 0.20 0.18 0.15 0.13 0.12 0.12 0.12 0.11 0.08 0.05 0.03 0.03 0.03 0.03 0.02 0.02 0.02 0.02 0.02 0.02 0.02 0.01 0.01 0.01 0.00 0.00 0.00 0.00 0.01 0.01 0.01 0.01
0.15 0.14 0.14 0.18 0.17 0.15 0.14 0.14 0.13 0.13 0.15 0.16 0.18 0.19 0.18 0.14 0.10 0.08 0.09 0.07 0.05 0.03 0.03 0.03 0.04 0.03 0.01 0.01 0.01 0.01 0.00 0.00 0.00 0.00 0.00 0.00 0.00 0.00 0.00 0.00 0.00 0.00 0.01
0.15 0.15 0.18 0.21 0.22 0.19 0.16 0.13 0.13 0.12 0.11 0.11 0.12 0.14 0.15 0.14 0.12 0.09 0.08 0.08 0.06 0.05 0.03 0.02 0.03 0.04 0.04 0.02 0.01 0.01 0.01 0.01 0.01 0.01 0.01 0.00 0.00 0.00 0.00 0.00 0.00 0.00 0.00
0.15 0.15 0.19 0.20 0.20 0.18 0.15 0.13 0.13 0.13 0.10 0.09 0.09 0.09 0.10 0.10 0.08 0.07 0.07 0.06 0.05 0.04 0.03 0.02 0.02 0.02 0.03 0.03 0.02 0.02 0.01 0.01 0.01 0.01 0.00 0.00 0.00 0.00 0.00 0.00 0.00 0.00 0.00
0.15 0.19 0.21 0.23 0.19 0.18 0.19 0.19 0.16 0.13 0.11 0.11 0.09 0.08 0.08 0.07 0.06 0.06 0.06 0.05 0.04 0.04 0.03 0.03 0.03 0.02 0.02 0.01 0.01 0.01 0.01 0.01 0.01 0.00 0.00 0.00 0.00 0.00 0.00 0.00 0.00 0.00 0.00
0.09 0.11 0.14 0.18 0.19 0.18 0.16 0.14 0.11 0.09 0.09 0.09 0.09 0.07 0.05 0.04 0.03 0.03 0.03 0.03 0.03 0.03 0.03 0.02 0.03 0.03 0.02 0.02 0.01 0.01 0.01 0.01 0.00 0.00 0.00 0.00 0.00 0.00 0.00 0.00 0.00 0.00 0.00
0.06 0.06 0.06 0.08 0.09 0.09 0.09 0.08 0.08 0.07 0.07 0.07 0.06 0.05 0.04 0.03 0.02 0.02 0.03 0.02 0.01 0.01 0.01 0.01 0.01 0.01 0.01 0.01 0.01 0.01 0.00 0.00 0.00 0.00 0.00 0.00 0.00 0.00 0.00 0.00 0.00 0.00 0.00
0.04 0.05 0.05 0.06 0.06 0.07 0.08 0.08 0.08 0.08 0.07 0.06 0.04 0.03 0.03 0.02 0.02 0.02 0.02 0.01 0.01 0.01 0.01 0.01 0.01 0.01 0.01 0.01 0.00 0.00 0.00 0.00 0.00 0.00 0.00 0.00 0.00 0.00 0.00 0.00 0.00 0.00 0.00
0.03 0.03 0.04 0.05 0.05 0.04 0.05 0.05 0.06 0.05 0.04 0.04 0.03 0.03 0.03 0.02 0.02 0.01 0.01 0.01 0.00 0.00 0.00 0.00 0.00 0.00 0.00 0.00 0.00 0.00 0.00 0.00 0.00 0.00 0.00 0.00 0.00 0.00 0.00 0.00 0.00 0.00 0.00
0.02 0.03 0.03 0.03 0.03 0.03 0.03 0.04 0.05 0.05 0.05 0.05 0.05 0.05 0.05 0.04 0.04 0.02 0.01 0.01 0.00 0.00 0.00 0.00 0.00 0.00 0.00 0.00 0.00 0.00 0.00 0.00 0.00 0.00 0.00 0.00 0.00 0.00 0.00 0.00 0.00 0.00 0.00
0.03 0.02 0.02 0.01 0.01 0.01 0.02 0.03 0.03 0.03 0.03 0.03 0.03 0.03 0.02 0.02 0.02 0.02 0.01 0.01 0.00 0.00 0.01 0.00 0.01 0.00 0.00 0.00 0.00 0.00 0.00 0.00 0.00 0.00 0.00 0.00 0.00 0.00 0.00 0.00 0.00 0.00 0.00
0.02 0.02 0.01 0.01 0.01 0.01 0.02 0.02 0.02 0.02 0.02 0.02 0.01 0.01 0.01 0.01 0.01 0.01 0.01 0.01 0.01 0.01 0.01 0.01 0.01 0.01 0.00 0.00 0.00 0.00 0.00 0.00 0.00 0.00 0.00 0.00 0.00 0.00 0.00 0.00 0.00 0.00 0.00
0.02 0.01 0.01 0.01 0.01 0.01 0.01 0.01 0.01 0.01 0.01 0.01 0.01 0.00 0.00 0.00 0.01 0.01 0.01 0.01 0.01 0.00 0.00 0.00 0.00 0.00 0.00 0.00 0.00 0.00 0.00 0.00 0.00 0.00 0.00 0.00 0.00 0.00 0.00 0.00 0.00 0.00 0.00
0.02 0.02 0.01 0.01 0.01 0.01 0.01 0.01 0.01 0.01 0.01 0.01 0.01 0.01 0.01 0.01 0.01 0.01 0.01 0.01 0.00 0.00 0.00 0.00 0.00 0.00 0.00 0.00 0.00 0.00 0.00 0.00 0.00 0.00 0.00 0.00 0.00 0.00 0.00 0.00 0.00 0.00 0.00
0.02 0.01 0.01 0.00 0.00 0.00 0.00 0.00 0.01 0.01 0.01 0.01 0.01 0.01 0.01 0.01 0.01 0.01 0.01 0.01 0.01 0.00 0.00 0.00 0.00 0.00 0.00 0.00 0.00 0.00 0.00 0.00 0.00 0.00 0.00 0.00 0.01 0.01 0.01 0.00 0.00 0.00 0.00
0.02 0.01 0.01 0.01 0.00 0.00 0.00 0.00 0.00 0.01 0.01 0.01 0.00 0.00 0.00 0.00 0.01 0.01 0.01 0.01 0.01 0.01 0.00 0.00 0.00 0.00 0.00 0.00 0.00 0.00 0.00 0.00 0.00 0.00 0.00 0.00 0.01 0.01 0.01 0.00 0.00 0.00 0.00
0.02 0.01 0.01 0.01 0.00 0.00 0.00 0.00 0.00 0.00 0.01 0.00 0.00 0.00 0.00 0.00 0.00 0.00 0.00 0.00 0.00 0.00 0.00 0.00 0.00 0.00 0.00 0.00 0.00 0.00 0.00 0.00 0.00 0.00 0.00 0.00 0.00 0.01 0.01 0.00 0.00 0.00 0.00
MSLP
1015.45 1015.51 1015.55 1015.58 1015.65 1015.76 1015.93 1016.15 1016.39 1016.62 1016.81 1016.96 1017.05 1017.11 1017.16 1017.23 1017.35 1017.53 1017.76 1018.04 1018.34 1018.63 1018.91 1019.14 1019.34 1019.50 1019.63 1019.74 1019.83 1019.91 1019.97 1020.03 1020.08 1020.15 1020.22 1020.32 1020.44 1020.57 1020.72 1020.85 1020.95 1021.02 1021.03
1015.47 1015.51 1015.53 1015.57 1015.65 1015.79 1015.99 1016.25 1016.53 1016.81 1017.06 1017.27 1017.43 1017.54 1017.63 1017.72 1017.82 1017.96 1018.14 1018.35 1018.59 1018.83 1019.08 1019.31 1019.52 1019.72 1019.89 1020.04 1020.18 1020.30 1020.40 1020.48 1020.55 1020.63 1020.71 1020.82 1020.94 1021.07 1021.21 1021.33 1021.41 1021.46 1021.46
1015.39 1015.41 1015.44 1015.50 1015.60 1015.78 1016.02 1016.32 1016.67 1017.02 1017.36 1017.66 1017.91 1018.10 1018.25 1018.37 1018.47 1018.57 1018.69 1018.82 1018.97 1019.14 1019.33 1019.53 1019.74 1019.95 1020.17 1020.37 1020.56 1020.73 1020.88 1021.00 1021.11 1021.20 1021.30 1021.40 1021.52 1021.64 1021.76 1021.85 1021.92 1021.95 1021.93
1015.21 1015.23 1015.27 1015.34 1015.47 1015.68 1015.97 1016.32 1016.73 1017.17 1017.61 1018.02 1018.39 1018.69 1018.93 1019.10 1019.23 1019.31 1019.37 1019.42 1019.48 1019.57 1019.68 1019.83 1020.02 1020.24 1020.48 1020.73 1020.97 1021.19 1021.39 1021.55 1021.68 1021.80 1021.90 1021.99 1022.09 1022.19 1022.28 1022.35 1022.39 1022.40 1022.37
1014.96 1014.99 1015.03 1015.12 1015.27 1015.50 1015.82 1016.21 1016.68 1017.20 1017.74 1018.27 1018.76 1019.19 1019.54 1019.80 1019.98 1020.07 1020.11 1020.11 1020.11 1020.11 1020.15 1020.25 1020.40 1020.60 1020.85 1021.11 1021.39 1021.65 1021.88 1022.07 1022.23 1022.35 1022.44 1022.52 1022.58 1022.64 1022.69 1022.73 1022.75 1022.74 1022.71
1014.70 1014.73 1014.78 1014.87 1015.02 1015.26 1015.58 1015.99 1016.49 1017.07 1017.68 1018.32 1018.93 1019.49 1019.98 1020.35 1020.62 1020.78 1020.84 1020.83 1020.79 1020.75 1020.74 1020.78 1020.89 1021.07 1021.29 1021.56 1021.84 1022.11 1022.35 1022.55 1022.70 1022.81 1022.89 1022.94 1022.96 1022.98 1022.99 1022.99 1022.97 1022.95 1022.91
1014.48 1014.52 1014.57 1014.65 1014.79 1015.00 1015.31 1015.70 1016.20 1016.79 1017.45 1018.16 1018.88 1019.57 1020.18 1020.69 1021.08 1021.33 1021.46 1021.50 1021.47 1021.43 1021.40 1021.41 1021.49 1021.63 1021.83 1022.07 1022.32 1022.57 1022.79 1022.98 1023.11 1023.20 1023.24 1023.25 1023.24 1023.21 1023.18 1023.13 1023.09 1023.05 1023.01
1014.38 1014.43 1014.48 1014.55 1014.66 1014.82 1015.07 1015.41 1015.86 1016.43 1017.10 1017.85 1018.63 1019.41 1020.14 1020.78 1021.30 1021.67 1021.91 1022.04 1022.09 1022.09 1022.08 1022.10 1022.16 1022.27 1022.43 1022.63 1022.84 1023.04 1023.22 1023.36 1023.46 1023.51 1023.53 1023.51 1023.46 1023.39 1023.32 1023.24 1023.17 1023.11 1023.05
1014.45 1014.51 1014.56 1014.61 1014.67 1014.78 1014.95 1015.22 1015.59 1016.10 1016.73 1017.46 1018.26 1019.09 1019.90 1020.64 1021.28 1021.78 1022.15 1022.40 1022.55 1022.64 1022.70 1022.75 1022.82 1022.92 1023.05 1023.19 1023.34 1023.48 1023.61 1023.70 1023.76 1023.78 1023.77 1023.73 1023.66 1023.58 1023.48 1023.37 1023.27 1023.19 1023.11
1014.71 1014.79 1014.84 1014.87 1014.89 1014.94 1015.03 1015.20 1015.48 1015.89 1016.44 1017.11 1017.88 1018.70 1019.53 1020.33 1021.04 1021.65 1022.14 1022.52 1022.80 1023.01 1023.16 1023.28 1023.40 1023.50 1023.61 1023.71 1023.80 1023.88 1023.94 1023.99 1024.02 1024.02 1024.00 1023.96 1023.90 1023.81 1023.71 1023.59 1023.47 1023.36 1023.26
1015.13 1015.23 1015.29 1015.31 1015.30 1015.29 1015.31 1015.40 1015.58 1015.89 1016.33 1016.91 1017.59 1018.35 1019.14 1019.93 1020.68 1021.35 1021.93 1022.42 1022.82 1023.15 1023.41 1023.63 1023.80 1023.93 1024.03 1024.10 1024.15 1024.18 1024.20 1024.21 1024.22 1024.22 1024.22 1024.20 1024.17 1024.11 1024.02 1023.90 1023.77 1023.64 1023.51
1015.65 1015.78 1015.85 1015.87 1015.85 1015.81 1015.79 1015.81 1015.91 1016.12 1016.45 1016.90 1017.47 1018.12 1018.82 1019.55 1020.26 1020.94 1021.56 1022.13 1022.63 1023.07 1023.44 1023.75 1023.99 1024.17 1024.28 1024.35 1024.37 1024.37 1024.35 1024.35 1024.35 1024.37 1024.41 1024.44 1024.45 1024.43 1024.38 1024.28 1024.15 1024.00 1023.84
1016.22 1016.37 1016.45 1016.48 1016.47 1016.43 1016.40 1016.39 1016.44 1016.57 1016.80 1017.13 1017.56 1018.07 1018.64 1019.25 1019.88 1020.51 1021.13 1021.73 1022.29 1022.80 1023.27 1023.66 1023.98 1024.21 1024.35 1024.43 1024.44 1024.43 1024.40 1024.39 1024.40 1024.46 1024.53 1024.62 1024.69 1024.73 1024.72 1024.66 1024.54 1024.38 1024.20
1016.78 1016.93 1017.03 1017.08 1017.10 1017.09 1017.07 1017.07 1017.10 1017.19 1017.35 1017.57 1017.87 1018.24 1018.66 1019.12 1019.63 1020.17 1020.73 1021.31 1021.89 1022.45 1022.98 1023.44 1023.82 1024.11 1024.29 1024.38 1024.40 1024.39 1024.36 1024.35 1024.38 1024.46 1024.58 1024.71 1024.84 1024.94 1024.98 1024.95 1024.85 1024.70 1024.51
1017.29 1017.44 1017.55 1017.63 1017.69 1017.72 1017.75 1017.78 1017.83 1017.91 1018.02 1018.18 1018.37 1018.60 1018.88 1019.19 1019.56 1019.98 1020.46 1020.99 1021.55 1022.12 1022.68 1023.19 1023.62 1023.95 1024.16 1024.28 1024.31 1024.30 1024.27 1024.27 1024.31 1024.40 1024.55 1024.72 1024.88 1025.02 1025.10 1025.10 1025.02 1024.88 1024.69
1017.76 1017.90 1018.01 1018.12 1018.21 1018.30 1018.38 1018.47 1018.56 1018.66 1018.77 1018.88 1019.00 1019.14 1019.29 1019.48 1019.72 1020.02 1020.40 1020.85 1021.36 1021.92 1022.48 1023.01 1023.46 1023.82 1024.06 1024.20 1024.24 1024.23 1024.20 1024.19 1024.22 1024.31 1024.45 1024.63 1024.80 1024.95 1025.04 1025.06 1025.01 1024.88 1024.71
1018.23 1018.34 1018.46 1018.57 1018.70 1018.83 1018.96 1019.11 1019.25 1019.39 1019.51 1019.62 1019.71 1019.79 1019.86 1019.96 1020.10 1020.30 1020.59 1020.96 1021.42 1021.93 1022.47 1022.98 1023.44 1023.81 1024.06 1024.21 1024.26 1024.24 1024.20 1024.17 1024.18 1024.24 1024.34 1024.48 1024.63 1024.76 1024.84 1024.85 1024.81 1024.70 1024.55
1018.74 1018.83 1018.93 1019.04 1019.18 1019.34 1019.51 1019.70 1019.89 1020.06 1020.22 1020.35 1020.44 1020.50 1020.54 1020.58 1020.66 1020.79 1021.01 1021.32 1021.71 1022.16 1022.66 1023.15 1023.59 1023.94 1024.19 1024.34 1024.39 1024.36 1024.30 1024.24 1024.20 1024.21 1024.25 1024.33 1024.41 1024.49 1024.53 1024.52 1024.46 1024.37 1024.25
1019.32 1019.39 1019.47 1019.58 1019.71 1019.87 1020.06 1020.26 1020.47 1020.68 1020.87 1021.02 1021.14 1021.21 1021.26 1021.29 1021.35 1021.44 1021.61 1021.86 1022.19 1022.59 1023.03 1023.47 1023.87 1024.20 1024.44 1024.57 1024.61 1024.57 1024.49 1024.39 1024.31 1024.24 1024.21 1024.20 1024.20 1024.19 1024.17 1024.12 1024.04 1023.95 1023.85
1019.98 1020.03 1020.11 1020.20 1020.31 1020.45 1020.62 1020.81 1021.03 1021.24 1021.45 1021.63 1021.78 1021.89 1021.96 1022.02 1022.08 1022.17 1022.31 1022.52 1022.79 1023.13 1023.50 1023.88 1024.23 1024.52 1024.73 1024.85 1024.87 1024.83 1024.73 1024.60 1024.46 1024.33 1024.22 1024.12 1024.03 1023.93 1023.83 1023.72 1023.60 1023.49 1023.40
1020.68 1020.75 1020.81 1020.89 1020.98 1021.08 1021.21 1021.37 1021.56 1021.76 1021.97 1022.16 1022.34 1022.49 1022.60 1022.69 1022.78 1022.88 1023.01 1023.19 1023.41 1023.68 1023.99 1024.29 1024.58 1024.82 1024.99 1025.09 1025.11 1025.06 1024.95 1024.80 1024.63 1024.45 1024.27 1024.08 1023.90 1023.72 1023.53 1023.35 1023.19 1023.06 1022.96
1021.39 1021.48 1021.56 1021.62 1021.68 1021.75 1021.83 1021.94 1022.08 1022.24 1022.43 1022.63 1022.82 1023.00 1023.15 1023.29 1023.40 1023.52 1023.64 1023.79 1023.97 1024.17 1024.40 1024.63 1024.84 1025.03 1025.16 1025.23 1025.25 1025.19 1025.09 1024.94 1024.76 1024.55 1024.32 1024.07 1023.82 1023.56 1023.30 1023.06 1022.85 1022.68 1022.56
1022.05 1022.18 1022.27 1022.34 1022.38 1022.41 1022.44 1022.49 1022.58 1022.70 1022.86 1023.04 1023.23 1023.43 1023.61 1023.77 1023.91 1024.04 1024.15 1024.27 1024.40 1024.53 1024.68 1024.83 1024.98 1025.10 1025.19 1025.24 1025.25 1025.20 1025.11 1024.98 1024.80 1024.58 1024.33 1024.06 1023.76 1023.44 1023.13 1022.84 1022.58 1022.37 1022.22
1022.61 1022.78 1022.91 1022.99 1023.02 1023.02 1023.02 1023.03 1023.06 1023.14 1023.26 1023.41 1023.59 1023.79 1023.98 1024.15 1024.30 1024.43 1024.53 1024.61 1024.68 1024.76 1024.83 1024.90 1024.97 1025.04 1025.08 1025.11 1025.11 1025.07 1025.00 1024.89 1024.73 1024.53 1024.28 1024.00 1023.68 1023.35 1023.00 1022.68 1022.38 1022.13 1021.94
1023.06 1023.27 1023.43 1023.53 1023.57 1023.57 1023.54 1023.52 1023.52 1023.55 1023.64 1023.76 1023.92 1024.11 1024.29 1024.46 1024.60 1024.71 1024.79 1024.83 1024.86 1024.87 1024.87 1024.87 1024.88 1024.88 1024.89 1024.89 1024.87 1024.84 1024.78 1024.69 1024.56 1024.38 1024.16 1023.89 1023.58 1023.24 1022.89 1022.55 1022.23 1021.96 1021.74
1023.41 1023.66 1023.85 1023.97 1024.03 1024.03 1024.00 1023.97 1023.95 1023.96 1024.01 1024.11 1024.24 1024.40 1024.56 1024.71 1024.83 1024.92 1024.97 1024.98 1024.95 1024.91 1024.86 1024.80 1024.75 1024.70 1024.67 1024.63 1024.60 1024.56 1024.51 1024.43 1024.31 1024.16 1023.96 1023.72 1023.43 1023.11 1022.78 1022.44 1022.12 1021.83 1021.58
Thickness
5730 5729 5729 5728 5728 5726 5725 5724 5723 5723 5723 5723 5723 5723 5723 5723 5722 5722 5722 5720 5718 5717 5716 5714 5712 5710 5708 5706 5704 5703 5701 5699 5697 5695 5694 5692 5691 5690 5689 5687 5686 5685 5684
5726 5725 5725 5724 5723 5723 5721 5721 5720 5719 5718 5718 5718 5718 5719 5719 5718 5718 5716 5715 5713 5712 5712 5710 5708 5706 5704 5702 5700 5698 5696 5694 5693 5691 5689 5688 5686 5685 5684 5683 5681 5680 5679
5722 5722 5721 5720 5720 5719 5718 5717 5716 5715 5714 5713 5713 5713 5714 5714 5713 5713 5711 5709 5707 5706 5706 5705 5703 5701 5699 5697 5695 5693 5691 5689 5688 5686 5684 5682 5681 5679 5678 5677 5675 5674 5673
5718 5718 5716 5716 5716 5715 5714 5712 5711 5709 5708 5707 5706 5706 5706 5707 5706 5706 5704 5703 5701 5700 5699 5698 5696 5695 5693 5691 5689 5687 5685 5683 5682 5680 5678 5676 5674 5672 5671 5670 5668 5667 5666
5714 5714 5712 5711 5711 5711 5710 5709 5706 5705 5703 5701 5700 5699 5698 5698 5698 5698 5697 5696 5694 5693 5691 5689 5689 5687 5685 5683 5682 5680 5678 5676 5674 5673 5671 5668 5666 5665 5663 5662 5660 5658 5657
5710 5709 5708 5707 5706 5705 5705 5703 5702 5701 5698 5696 5694 5690 5689 5689 5689 5689 5688 5687 5685 5684 5683 5682 5680 5679 5677 5675 5673 5671 5669 5667 5666 5664 5662 5660 5658 5656 5654 5653 5651 5649 5648
5704 5704 5704 5703 5702 5701 5701 5700 5698 5695 5692 5691 5685 5679 5677 5679 5679 5679 5679 5678 5676 5675 5673 5673 5672 5670 5668 5666 5664 5662 5660 5658 5656 5655 5653 5650 5648 5646 5645 5643 5641 5639 5638
5697 5697 5697 5698 5698 5697 5696 5695 5694 5690 5686 5686 5682 5675 5668 5666 5667 5668 5669 5669 5667 5666 5664 5663 5662 5661 5659 5657 5655 5653 5651 5649 5647 5644 5642 5640 5638 5636 5634 5632 5630 5628 5626
5688 5689 5691 5692 5693 5692 5691 5691 5691 5688 5683 5681 5682 5678 5668 5662 5657 5656 5658 5659 5659 5658 5656 5654 5653 5651 5649 5647 5644 5642 5640 5638 5636 5634 5632 5629 5627 5625 5623 5621 5619 5617 5614
5678 5680 5683 5684 5685 5685 5684 5684 5685 5684 5681 5676 5675 5676 5674 5669 5658 5649 5647 5649 5650 5648 5647 5645 5643 5641 5639 5636 5634 5631 5629 5627 5625 5623 5621 5618 5616 5614 5611 5609 5606 5604 5602
5668 5670 5673 5674 5675 5676 5675 5676 5676 5676 5674 5671 5669 5668 5665 5662 5659 5652 5642 5639 5638 5638 5637 5635 5633 5631 5628 5626 5623 5621 5619 5617 5614 5611 5609 5607 5604 5601 5599 5596 5594 5591 5588
5658 5660 5662 5664 5665 5666 5666 5666 5667 5667 5665 5664 5662 5661 5659 5657 5652 5648 5641 5634 5630 5627 5626 5625 5622 5620 5617 5615 5613 5611 5608 5606 5603 5600 5597 5595 5592 5589 5586 5583 5580 5577 5574
5647 5649 5652 5653 5654 5654 5655 5656 5656 5655 5654 5653 5652 5651 5650 5650 5648 5644 5637 5629 5622 5617 5615 5613 5612 5611 5608 5606 5603 5601 5598 5595 5592 5589 5586 5582 5579 5576 5573 5569 5566 5563 5559
5636 5638 5639 5641 5642 5643 5644 5644 5643 5642 5642 5642 5641 5640 5639 5639 5639 5637 5631 5625 5615 5608 5606 5603 5602 5600 5599 5596 5593 5590 5587 5585 5581 5578 5574 5571 5567 5564 5560 5556 5553 5549 5545
5625 5626 5627 5628 5629 5631 5632 5632 5631 5629 5629 5629 5628 5627 5627 5626 5627 5627 5625 5621 5614 5603 5596 5594 5592 5590 5588 5586 5583 5579 5576 5574 5571 5567 5564 5560 5556 5552 5548 5544 5541 5537 5533
5612 5614 5615 5615 5616 5617 5619 5619 5618 5617 5617 5616 5615 5615 5614 5613 5614 5614 5613 5610 5607 5601 5591 5586 5584 5582 5579 5576 5573 5569 5566 5564 5561 5558 5554 5550 5546 5542 5537 5533 5530 5526 5522
5599 5600 5601 5603 5603 5604 5605 5606 5605 5605 5604 5603 5602 5602 5601 5601 5601 5601 5600 5598 5595 5592 5584 5577 5575 5572 5569 5566 5563 5560 5557 5555 5552 5549 5546 5541 5537 5533 5528 5524 5520 5517 5513
5586 5587 5588 5589 5590 5590 5591 5592 5592 5592 5591 5590 5589 5589 5588 5589 5588 5587 5586 5584 5582 5579 5575 5567 5563 5560 5558 5555 5553 5550 5548 5546 5544 5541 5537 5533 5529 5525 5521 5517 5513 5509 5506
5574 5574 5575 5575 5576 5577 5577 5578 5579 5578 5578 5577 5576 5576 5575 5576 5574 5573 5572 5570 5568 5567 5563 5557 5551 5548 5546 5544 5542 5540 5538 5536 5535 5532 5529 5525 5522 5518 5514 5511 5507 5503 5500
5562 5562 5562 5563 5564 5565 5566 5566 5566 5565 5565 5565 5564 5564 5563 5563 5561 5561 5559 5556 5555 5553 5549 5545 5540 5537 5534 5533 5530 5527 5525 5525 5525 5523 5521 5518 5515 5512 5509 5505 5502 5499 5495
5550 5550 5551 5551 5552 5553 5553 5554 5554 5554 5553 5552 5552 5552 5552 5552 5551 5550 5548 5545 5543 5540 5536 5532 5528 5525 5522 5521 5519 5517 5515 5514 5515 5514 5512 5511 5509 5506 5504 5501 5498 5495 5491
5539 5539 5539 5540 5540 5541 5542 5543 5543 5542 5542 5541 5540 5540 5540 5540 5539 5538 5537 5536 5533 5530 5525 5521 5517 5515 5513 5512 5510 5509 5506 5504 5503 5505 5503 5502 5502 5500 5499 5497 5495 5492 5488
5528 5528 5528 5528 5528 5529 5532 5533 5533 5533 5532 5531 5530 5529 5529 5528 5527 5527 5526 5525 5523 5521 5519 5514 5510 5508 5506 5505 5504 5502 5499 5497 5496 5498 5496 5495 5495 5494 5495 5494 5492 5489 5486
5519 5519 5518 5519 5519 5520 5522 5524 5524 5523 5522 5520 5519 5518 5516 5516 5516 5516 5515 5514 5512 5511 5509 5507 5505 5503 5502 5501 5498 5496 5494 5492 5492 5492 5491 5488 5489 5489 5491 5491 5490 5487 5484
5511 5511 5510 5510 5511 5511 5513 5514 5514 5513 5511 5509 5509 5508 5507 5506 5506 5506 5505 5502 5501 5500 5501 5500 5500 5499 5498 5496 5494 5490 5488 5485 5483 5485 5486 5484 5484 5484 5486 5487 5487 5485 5483
5504 5504 5504 5503 5503 5503 5504 5505 5505 5503 5500 5499 5498 5498 5498 5497 5497 5497 5495 5493 5491 5491 5492 5493 5494 5494 5493 5492 5490 5487 5484 5480 5478 5478 5482 5481 5481 5480 5479 5483 5484 5484 5482